Location: Alsip
(41.6689°N, 87.7387°W)
Time: 15:09:59
(UTC+00:00)

Lacrosse 5 - Pass Details

Date: 14 July 2020
Orbit: 717 x 720 km, 57.0° (Epoch: 09 August)

Event Time Altitude Azimuth Distance (km) Brightness Sun altitude
Exits shadow 06:47:14 24° 280° (W) 1,448 3.4 -25.7°
Maximum altitude 06:49:27 36° 327° (NNW) 1,137 3.2 -25.6°
Drops below altitude 10° 06:54:07 10° 33° (NNE) 2,205 5.3 -25.4°
Sets 06:56:42 0° 42° (NE) 3,128 6.2 -25.2°
